Volver al catálogo

USA 16

ActivoMilitarLEO
NORAD 16624·PAYLOAD·🇺🇸 United States

Lanzado Feb 9, 1986 desde Vandenberg Space Force Base

Loading…

Próximos Pases (próximas 24 horas)

TLE

ActualizadoSource: Space-Track

Época: Sep 14, 2026, 07:52 UTC

1 16624U 86014E   26257.32821534  .00001742  00000-0  18859-3 0  9996
2 16624  63.2995 232.4378 0786912 117.9155 250.3824 13.72681019361187

Sigue USA 16 en tiempo real con AllMySat

Download on the App Store